DW0937 Weather Reports


Display with metric or nautical units.
time (UTC)temp
F
wind
direction
speed
MPH
gust
MPH
rain 1hr
in
rain 24hr
in
rain mn
in
humidity
%
barometer
mb
20260906025742 76 158 0.0 0.0 0.00 0.00 0.00 79 1017.1
20260906025242 76 158 0.0 0.0 0.00 0.00 0.00 79 1017.1
20260906024744 76 158 0.0 0.0 0.00 0.00 0.00 79 1017.2
20260906024243 76 158 0.0 0.0 0.00 0.00 0.00 78 1017.1
20260906023744 76 158 0.0 1.0 0.00 0.00 0.00 78 1017.0
20260906023240 76 158 0.0 1.0 0.00 0.00 0.00 77 1016.8
20260906023232 76 158 0.0 2.0 0.00 0.00 0.00 77 1016.7
20260906022240 76 158 1.0 2.0 0.00 0.00 0.00 77 1016.6
20260906021740 76 158 1.0 2.0 0.00 0.00 0.00 77 1016.4
20260906021241 76 158 1.0 3.0 0.00 0.00 0.00 77 1016.5
20260906020741 76 158 1.0 4.0 0.00 0.00 0.00 76 1016.4
20260906020239 76 158 1.0 4.0 0.00 0.00 0.00 76 1016.3
20260906015742 77 148 0.0 2.0 0.00 0.00 0.00 75 1016.2
20260906015238 77 155 1.0 3.0 0.00 0.00 0.00 75 1016.0
20260906014738 77 155 1.0 7.0 0.00 0.00 0.00 75 1015.8
20260906014241 77 136 2.0 8.0 0.00 0.00 0.00 75 1015.6
20260906013738 78 153 3.0 8.0 0.00 0.00 0.00 75 1015.4
20260906013236 78 141 3.0 6.0 0.00 0.00 0.00 75 1015.4
20260906012938 78 145 4.0 9.0 0.00 0.00 0.00 74 1015.2
20260906012834 78 159 3.0 9.0 0.00 0.00 0.00 74 1015.3
20260906011736 79 123 4.0 8.0 0.00 0.00 0.00 74 1015.0
20260906011238 79 143 3.0 9.0 0.00 0.00 0.00 73 1015.0
20260906010739 80 148 3.0 9.0 0.00 0.00 0.00 73 1015.0
20260906010236 80 146 3.0 6.0 0.00 0.00 0.00 72 1015.0
20260906005736 80 141 3.0 8.0 0.00 0.00 0.00 71 1015.0
20260906005235 80 157 3.0 8.0 0.00 0.00 0.00 69 1014.8
20260906004735 81 148 3.0 8.0 0.00 0.00 0.00 69 1014.7
20260906004235 81 157 2.0 7.0 0.00 0.00 0.00 68 1014.5
20260906003734 81 115 3.0 7.0 0.00 0.00 0.00 67 1014.4
20260906003246 82 117 3.0 6.0 0.00 0.00 0.00 66 1014.3
20260906002936 82 143 2.0 6.0 0.00 0.00 0.00 65 1014.2
20260906002828 82 145 3.0 5.0 0.00 0.00 0.00 66 1014.3
20260906001729 83 49 2.0 6.0 0.00 0.00 0.00 64 1014.4
20260906001228 83 144 2.0 7.0 0.00 0.00 0.00 64 1014.6
20260906000728 83 84 3.0 7.0 0.00 0.00 0.00 63 1014.4
20260906000455 83 73 3.0 10.0 0.00 0.00 0.00 62 1014.5
20260905235729 84 60 3.0 10.0 0.00 0.00 0.00 62 1014.4
20260905235226 84 159 3.0 9.0 0.00 0.00 0.00 61 1014.4
20260905234726 84 82 3.0 9.0 0.00 0.00 0.00 61 1014.3
20260905234445 84 160 3.0 8.0 0.00 0.00 0.00 60 1014.2
20260905233725 84 165 3.0 10.0 0.00 0.00 0.00 60 1014.1
20260905233225 85 75 4.0 11.0 0.00 0.00 0.00 60 1014.0
20260905232724 85 17 4.0 11.0 0.00 0.00 0.00 61 1014.0
20260905232223 85 81 4.0 10.0 0.00 0.00 0.00 60 1013.9
20260905231724 85 104 4.0 13.0 0.00 0.00 0.00 60 1014.0
20260905231224 85 50 4.0 13.0 0.00 0.00 0.00 60 1013.9
20260905230942 85 71 3.0 11.0 0.00 0.00 0.00 59 1013.9
20260905230220 85 116 3.0 8.0 0.00 0.00 0.00 60 1013.9
20260905225724 85 53 3.0 11.0 0.00 0.00 0.00 60 1013.7
20260905225220 85 123 3.0 11.0 0.00 0.00 0.00 60 1013.6
20260905224720 85 68 3.0 10.0 0.00 0.00 0.00 60 1013.6
20260905224221 85 87 3.0 10.0 0.00 0.00 0.00 60 1013.6
20260905223718 86 73 4.0 11.0 0.00 0.00 0.00 61 1013.7
20260905223447 86 101 3.0 11.0 0.00 0.00 0.00 60 1013.9
20260905222715 86 98 2.0 9.0 0.00 0.00 0.00 61 1014.0
20260905222212 86 269 3.0 9.0 0.00 0.00 0.00 61 1014.0
20260905221658 86 117 3.0 9.0 0.00 0.00 0.00 60 1014.0
20260905221152 86 175 2.0 5.0 0.00 0.00 0.00 61 1014.0
20260905220917 86 104 2.0 10.0 0.00 0.00 0.00 60 1014.0
20260905220150 86 44 3.0 10.0 0.00 0.00 0.00 59 1013.9
20260905215650 86 70 3.0 9.0 0.00 0.00 0.00 59 1013.7
20260905215147 86 313 3.0 9.0 0.00 0.00 0.00 58 1013.7
20260905214905 86 74 3.0 13.0 0.00 0.00 0.00 58 1013.9
20260905214143 86 26 4.0 13.0 0.00 0.00 0.00 57 1013.9
20260905213642 86 88 3.0 11.0 0.00 0.00 0.00 59 1014.0
20260905213141 86 80 4.0 14.0 0.00 0.00 0.00 59 1014.0
20260905212640 86 309 4.0 14.0 0.00 0.00 0.00 59 1014.1
20260905212142 86 123 3.0 9.0 0.00 0.00 0.00 60 1014.1
20260905211640 86 324 3.0 11.0 0.00 0.00 0.00 61 1014.0
20260905211138 85 265 3.0 11.0 0.00 0.00 0.00 61 1013.9
20260905210640 85 84 4.0 13.0 0.00 0.00 0.00 62 1014.0
20260905210139 85 346 5.0 13.0 0.00 0.00 0.00 62 1014.3
20260905205637 85 74 6.0 13.0 0.00 0.00 0.00 62 1014.5
20260905205406 85 88 4.0 11.0 0.00 0.00 0.00 63 1014.8
20260905204628 85 71 3.0 11.0 0.00 0.00 0.00 63 1014.9
20260905204124 85 53 2.0 8.0 0.00 0.00 0.00 65 1015.0
20260905203622 85 12 2.0 7.0 0.00 0.00 0.00 64 1015.1
20260905203120 84 114 2.0 7.0 0.00 0.00 0.00 65 1015.2
20260905202619 84 88 2.0 8.0 0.00 0.00 0.00 66 1015.2
20260905202116 84 115 2.0 8.0 0.00 0.00 0.00 66 1015.2
20260905201618 84 157 2.0 9.0 0.00 0.00 0.00 65 1015.3
20260905201117 84 92 2.0 9.0 0.00 0.00 0.00 65 1015.5
20260905200614 83 274 1.0 6.0 0.00 0.00 0.00 68 1015.6
20260905200335 83 167 2.0 6.0 0.00 0.00 0.00 68 1015.8
20260905195615 83 339 2.0 8.0 0.00 0.00 0.00 66 1015.8
20260905195112 84 165 2.0 8.0 0.00 0.00 0.00 66 1015.8
20260905195055 83 107 2.0 6.0 0.00 0.00 0.00 69 1015.9
20260905194112 83 318 2.0 7.0 0.00 0.00 0.00 67 1016.0
20260905193614 83 87 2.0 7.0 0.00 0.00 0.00 67 1016.0
20260905193112 82 202 2.0 5.0 0.00 0.00 0.00 70 1016.0
20260905192611 82 161 3.0 6.0 0.00 0.00 0.00 68 1016.1
20260905192105 82 189 2.0 6.0 0.00 0.00 0.00 69 1016.1
20260905191824 82 79 1.0 4.0 0.00 0.00 0.00 69 1016.0
20260905191054 82 322 2.0 6.0 0.00 0.00 0.00 69 1016.0
20260905190554 82 9 1.0 6.0 0.00 0.00 0.00 69 1016.1
20260905190107 82 153 1.0 4.0 0.00 0.00 0.00 69 1016.0
20260905185554 82 159 2.0 6.0 0.00 0.00 0.00 70 1016.1
20260905185058 81 169 2.0 6.0 0.00 0.00 0.00 71 1016.2
20260905184554 81 248 2.0 8.0 0.00 0.00 0.00 70 1016.1
20260905184055 81 84 2.0 8.0 0.00 0.00 0.00 73 1016.1
20260905183554 80 314 2.0 7.0 0.00 0.00 0.00 73 1016.2
20260905183052 80 123 1.0 7.0 0.00 0.00 0.00 74 1016.2
20260905182550 80 132 1.0 2.0 0.00 0.00 0.00 75 1016.2
20260905182048 79 216 1.0 5.0 0.00 0.00 0.00 76 1016.3
20260905181546 79 325 1.0 5.0 0.00 0.00 0.00 76 1016.3
20260905181047 79 329 1.0 5.0 0.00 0.00 0.00 76 1016.3
20260905180547 78 108 2.0 7.0 0.00 0.00 0.00 78 1016.4
20260905180044 78 178 2.0 7.0 0.00 0.00 0.00 77 1016.4
20260905175539 78 145 1.0 3.0 0.00 0.00 0.00 79 1016.6
20260905175034 78 60 1.0 6.0 0.00 0.00 0.00 78 1016.5
20260905174534 78 88 2.0 6.0 0.00 0.00 0.00 77 1016.6
20260905174035 79 57 2.0 5.0 0.00 0.00 0.00 76 1016.8
20260905173534 79 130 2.0 4.0 0.00 0.00 0.00 78 1016.8
20260905173254 78 157 2.0 6.0 0.00 0.00 0.00 78 1016.8
20260905172534 78 240 2.0 6.0 0.00 0.00 0.00 80 1016.9
20260905172033 77 161 2.0 5.0 0.00 0.00 0.00 80 1016.9
20260905171756 77 146 2.0 6.0 0.00 0.00 0.00 80 1016.9
20260905171033 77 158 2.0 6.0 0.00 0.00 0.00 80 1016.9
20260905170535 76 67 2.0 6.0 0.00 0.00 0.00 81 1016.9
20260905170518 76 76 3.0 8.0 0.00 0.00 0.00 82 1017.0
20260905165546 76 142 2.0 8.0 0.00 0.00 0.00 81 1017.0
20260905165252 77 166 1.0 6.0 0.00 0.00 0.00 82 1017.0
20260905164534 76 84 1.0 6.0 0.00 0.00 0.00 81 1017.1
20260905164034 77 136 2.0 5.0 0.00 0.00 0.00 82 1017.2
20260905163536 76 161 2.0 5.0 0.00 0.00 0.00 83 1017.2
20260905163035 76 161 2.0 5.0 0.00 0.00 0.00 82 1017.1
20260905162756 76 133 2.0 5.0 0.00 0.00 0.00 83 1017.2
20260905162034 75 157 1.0 5.0 0.00 0.00 0.00 85 1017.1
20260905161533 75 343 1.0 7.0 0.00 0.00 0.00 84 1017.0
20260905161035 75 92 1.0 7.0 0.00 0.00 0.00 85 1017.1
20260905160538 74 155 1.0 4.0 0.00 0.00 0.00 86 1017.1
20260905160034 74 77 1.0 5.0 0.00 0.00 0.00 87 1017.2
20260905155535 74 75 1.0 5.0 0.00 0.00 0.00 87 1017.1
20260905155035 74 246 1.0 4.0 0.00 0.00 0.00 89 1017.1
20260905154546 73 114 1.0 5.0 0.00 0.00 0.00 89 1017.1
20260905154514 73 49 1.0 5.0 0.00 0.00 0.00 89 1017.0
20260905153532 73 43 1.0 2.0 0.00 0.00 0.00 91 1016.9
20260905153032 73 82 1.0 7.0 0.00 0.00 0.00 92 1016.8
20260905152754 72 82 1.0 7.0 0.00 0.00 0.00 92 1016.7
20260905152032 72 82 1.0 6.0 0.00 0.00 0.00 93 1016.6
20260905151533 71 94 1.0 5.0 0.00 0.00 0.00 94 1016.6
20260905151032 71 94 1.0 8.0 0.00 0.00 0.00 94 1016.5
20260905150753 71 75 1.0 8.0 0.00 0.00 0.00 94 1016.4
20260905150033 71 39 0.0 3.0 0.00 0.00 0.00 94 1016.4
20260905145530 70 323 1.0 6.0 0.00 0.00 0.00 95 1016.5
20260905145030 70 65 1.0 6.0 0.00 0.00 0.00 95 1016.6
20260905144529 70 77 1.0 3.0 0.00 0.00 0.00 95 1016.5
20260905144030 70 87 2.0 4.0 0.00 0.00 0.00 95 1016.6
20260905143528 70 340 1.0 4.0 0.00 0.00 0.00 95 1016.6
20260905143029 69 49 1.0 3.0 0.00 0.00 0.00 95 1016.6
20260905142527 69 345 1.0 5.0 0.00 0.00 0.00 95 1016.6
20260905142257 69 93 1.0 5.0 0.00 0.00 0.00 95 1016.5
20260905141528 69 82 0.0 3.0 0.00 0.00 0.00 96 1016.6
20260905141027 69 13 1.0 5.0 0.00 0.00 0.00 96 1016.6
20260905140756 69 96 1.0 5.0 0.00 0.00 0.00 96 1016.6
20260905140030 69 78 0.0 2.0 0.00 0.00 0.00 96 1016.7
20260905135525 69 78 0.0 1.0 0.00 0.00 0.00 96 1016.8
20260905135026 69 78 0.0 1.0 0.00 0.00 0.00 96 1016.7
20260905134752 69 78 1.0 3.0 0.00 0.00 0.00 96 1016.6
20260905134022 69 78 1.0 3.0 0.00 0.00 0.00 96 1016.5
20260905133525 69 42 1.0 3.0 0.00 0.00 0.00 96 1016.4
20260905133021 69 38 0.0 2.0 0.00 0.00 0.00 96 1016.3
20260905132523 69 315 0.0 2.0 0.00 0.00 0.00 96 1016.5
20260905132021 69 314 1.0 2.0 0.00 0.00 0.00 96 1016.3
20260905131520 69 313 1.0 4.0 0.00 0.00 0.00 96 1016.2
20260905131018 69 311 0.0 4.0 0.00 0.00 0.00 96 1016.0
20260905130512 69 71 0.0 0.0 0.00 0.00 0.00 96 1015.8
20260905130006 69 71 0.0 3.0 0.00 0.00 0.00 96 1015.6
20260905125455 69 71 1.0 3.0 0.00 0.00 0.00 96 1015.3
20260905124954 69 44 1.0 5.0 0.00 0.00 0.00 96 1015.2
20260905124449 69 71 1.0 5.0 0.00 0.00 0.00 96 1015.0
20260905123947 69 175 1.0 3.0 0.00 0.00 0.00 96 1014.9
20260905123445 68 91 1.0 5.0 0.00 0.00 0.00 96 1014.9
20260905122946 68 90 1.0 5.0 0.00 0.00 0.00 96 1014.9
20260905122447 68 29 1.0 4.0 0.00 0.00 0.00 96 1015.0
20260905122306 68 31 1.0 4.0 0.00 0.00 0.00 96 1015.3
20260905122212 68 78 1.0 4.0 0.00 0.00 0.00 96 1015.2
20260905120944 68 336 1.0 4.0 0.00 0.00 0.00 96 1015.3
20260905120707 68 322 1.0 3.0 0.00 0.00 0.00 95 1015.3
20260905115945 68 322 1.0 3.0 0.00 0.00 0.00 95 1015.4
20260905115441 68 355 1.0 4.0 0.00 0.00 0.00 95 1015.4
20260905114940 68 62 1.0 4.0 0.00 0.00 0.00 95 1015.3
20260905114437 68 311 0.0 3.0 0.00 0.00 0.00 95 1015.0
20260905113939 68 296 0.0 1.0 0.00 0.00 0.00 95 1014.9
20260905113440 68 296 0.0 3.0 0.00 0.00 0.00 95 1015.0
20260905112950 68 296 1.0 3.0 0.00 0.00 0.00 95 1014.8
20260905112653 68 25 0.0 2.0 0.00 0.00 0.00 95 1014.9
20260905112534 68 329 1.0 3.0 0.00 0.00 0.00 95 1014.9
20260905111436 68 18 0.0 0.0 0.00 0.00 0.00 95 1014.9
20260905110935 68 18 0.0 0.0 0.00 0.00 0.00 95 1015.0
20260905110432 68 19 0.0 0.0 0.00 0.00 0.00 95 1014.9
20260905105931 68 21 0.0 0.0 0.00 0.00 0.00 95 1014.9
20260905105430 68 21 0.0 0.0 0.00 0.00 0.00 95 1014.8
20260905104930 68 19 0.0 0.0 0.00 0.00 0.00 95 1014.9
20260905104431 68 19 0.0 3.0 0.00 0.00 0.00 95 1014.9
20260905103930 68 19 1.0 3.0 0.00 0.00 0.00 95 1014.8
20260905103428 68 39 1.0 3.0 0.00 0.00 0.00 95 1014.6
20260905102926 68 71 1.0 5.0 0.00 0.00 0.00 95 1014.6
20260905102422 67 86 2.0 6.0 0.00 0.00 0.00 94 1014.6
20260905101923 68 70 1.0 6.0 0.00 0.00 0.00 94 1014.7
20260905101641 68 65 1.0 4.0 0.00 0.00 0.00 94 1015.0
20260905100922 67 99 2.0 7.0 0.00 0.00 0.00 94 1014.8
20260905100431 67 86 2.0 7.0 0.00 0.00 0.00 94 1014.4
20260905095918 67 127 2.0 7.0 0.00 0.00 0.00 94 1014.3
20260905095418 67 92 1.0 5.0 0.00 0.00 0.00 94 1014.2
20260905094917 67 73 1.0 5.0 0.00 0.00 0.00 94 1014.2
20260905094641 67 17 2.0 5.0 0.00 0.00 0.00 94 1014.0
20260905093913 68 26 1.0 5.0 0.00 0.00 0.00 93 1014.0
20260905093412 68 53 1.0 5.0 0.00 0.00 0.00 93 1014.1
20260905092912 68 321 1.0 5.0 0.00 0.00 0.00 93 1014.1
20260905092411 68 55 1.0 6.0 0.00 0.00 0.00 93 1014.0
20260905091911 68 67 2.0 6.0 0.00 0.00 0.00 93 1014.0
20260905091411 68 38 2.0 7.0 0.00 0.00 0.00 93 1014.2
20260905091133 68 61 1.0 7.0 0.00 0.00 0.00 93 1014.3
20260905090630 68 329 1.0 5.0 0.00 0.00 0.00 93 1014.4
20260905085910 68 327 1.0 5.0 0.00 0.00 0.00 93 1014.5
20260905085407 68 355 1.0 4.0 0.00 0.00 0.00 93 1014.4
20260905084907 68 49 1.0 5.0 0.00 0.00 0.00 93 1014.5
20260905084407 68 53 2.0 5.0 0.00 0.00 0.00 93 1014.5
20260905083908 68 323 2.0 6.0 0.00 0.00 0.00 93 1014.6
20260905083408 68 335 1.0 6.0 0.00 0.00 0.00 93 1014.6
20260905082909 68 46 1.0 4.0 0.00 0.00 0.00 93 1014.5
20260905082408 68 64 1.0 4.0 0.00 0.00 0.00 93 1014.5
20260905081908 68 327 1.0 5.0 0.00 0.00 0.00 93 1014.5
20260905081407 68 16 2.0 6.0 0.00 0.00 0.00 93 1014.5
20260905080907 68 5 2.0 6.0 0.00 0.00 0.00 93 1014.6
20260905080406 68 346 1.0 5.0 0.00 0.00 0.00 93 1014.6
20260905075905 68 82 1.0 5.0 0.00 0.00 0.00 93 1014.6
20260905075404 68 17 1.0 4.0 0.00 0.00 0.00 93 1014.8
20260905075120 68 62 1.0 4.0 0.00 0.00 0.00 93 1014.8
20260905074626 68 346 1.0 4.0 0.00 0.00 0.00 93 1014.8
20260905073848 68 57 1.0 5.0 0.00 0.00 0.00 93 1014.8
20260905073348 68 84 1.0 6.0 0.00 0.00 0.00 93 1014.8
20260905072845 68 327 1.0 6.0 0.00 0.00 0.00 93 1014.9
20260905072344 68 66 1.0 4.0 0.00 0.00 0.00 93 1014.8
20260905071843 68 67 1.0 5.0 0.00 0.00 0.00 92 1014.8
20260905071830 68 21 1.0 6.0 0.00 0.00 0.00 92 1014.8
20260905070841 68 325 1.0 6.0 0.00 0.00 0.00 92 1014.7
20260905070341 68 355 1.0 3.0 0.00 0.00 0.00 92 1014.7
20260905065842 68 350 1.0 5.0 0.00 0.00 0.00 92 1014.7
20260905065824 68 5 1.0 5.0 0.00 0.00 0.00 92 1014.7
20260905064841 68 5 0.0 4.0 0.00 0.00 0.00 92 1014.7
20260905064338 68 67 0.0 5.0 0.00 0.00 0.00 92 1014.8
20260905063839 68 67 1.0 5.0 0.00 0.00 0.00 92 1014.9
20260905063556 68 331 1.0 5.0 0.00 0.00 0.00 91 1014.9
20260905062839 68 329 1.0 6.0 0.00 0.00 0.00 91 1014.7
20260905062340 68 334 1.0 6.0 0.00 0.00 0.00 91 1014.7
20260905061834 68 12 1.0 4.0 0.00 0.00 0.00 91 1014.8
20260905061335 68 15 1.0 4.0 0.00 0.00 0.00 91 1014.8
20260905060833 68 330 1.0 4.0 0.00 0.00 0.00 90 1014.7
20260905060333 68 325 0.0 3.0 0.00 0.00 0.00 90 1014.7
20260905055833 68 325 0.0 3.0 0.00 0.00 0.00 90 1014.6
20260905055604 68 325 1.0 3.0 0.00 0.00 0.00 90 1014.5
20260905055056 68 325 1.0 4.0 0.00 0.00 0.00 90 1014.4
20260905054335 69 327 0.0 4.0 0.00 0.00 0.00 89 1014.5
20260905053831 69 326 1.0 3.0 0.00 0.00 0.00 89 1014.5
20260905053331 69 63 1.0 5.0 0.00 0.00 0.00 89 1014.3
20260905052831 69 65 1.0 5.0 0.00 0.00 0.00 89 1014.2
20260905052331 69 12 1.0 5.0 0.00 0.00 0.00 88 1014.2
20260905051832 69 297 1.0 5.0 0.00 0.00 0.00 88 1014.3
20260905051331 69 355 1.0 4.0 0.00 0.00 0.00 88 1014.1
20260905050829 69 63 1.0 4.0 0.00 0.00 0.00 88 1014.0
20260905050326 70 85 0.0 4.0 0.00 0.00 0.00 87 1014.0
20260905045824 70 35 0.0 4.0 0.00 0.00 0.00 87 1014.0
20260905045325 70 322 0.0 3.0 0.00 0.00 0.00 87 1014.1
20260905044826 70 319 1.0 4.0 0.00 0.00 0.00 87 1014.1
20260905044327 70 15 1.0 4.0 0.00 0.00 0.00 86 1014.1
20260905043825 70 332 1.0 4.0 0.00 0.00 0.00 86 1014.1
20260905043325 71 102 0.0 4.0 0.00 0.00 0.00 86 1014.2
20260905042825 71 345 0.0 2.0 0.00 0.00 0.00 86 1014.2
20260905042544 71 346 0.0 3.0 0.00 0.00 0.00 85 1014.3
20260905041825 71 90 1.0 7.0 0.00 0.00 0.00 85 1014.3
20260905041549 71 346 1.0 7.0 0.00 0.00 0.00 85 1014.3
20260905040825 71 5 0.0 3.0 0.00 0.00 0.00 84 1014.2
20260905040325 72 39 1.0 5.0 0.00 0.00 0.00 84 1014.0
20260905035824 72 328 1.0 5.0 0.00 0.00 0.00 84 1014.2
20260905035324 72 308 1.0 5.0 0.00 0.00 0.00 83 1014.2
20260905035048 72 80 2.0 8.0 0.00 0.00 0.00 83 1014.2
20260905034325 72 25 2.0 8.0 0.00 0.00 0.00 83 1014.2
20260905033824 73 24 1.0 5.0 0.00 0.00 0.00 82 1014.1
20260905033323 73 151 2.0 6.0 0.00 0.00 0.00 82 1014.1
20260905032822 73 5 1.0 6.0 0.00 0.00 0.00 82 1014.1
20260905032320 73 329 1.0 4.0 0.00 0.00 0.00 81 1014.1
20260905031818 73 336 1.0 6.0 0.00 0.00 0.00 81 1014.0
20260905031320 74 5 2.0 6.0 0.00 0.00 0.00 81 1014.0
20260905030818 74 5 2.0 6.0 0.00 0.00 0.00 81 1014.0
20260905030320 74 15 2.0 6.0 0.00 0.00 0.00 80 1014.0